Date String (YYYY-MM-DD hh:mm:ss) UTC,Instrument flags,Ambient pressure (hPa),Sample flow (lpm),Bypass flow (lpm),Sample temperature (°C),Ambient temperature (°C),ASC tube jacket temperature (°C),LED temperature (°C),Box temperature (°C),Sample RH (%),Span deviation,Mass concentration (μg/m³),Mass concentration (μg/m³),Mass concentration (μg/m³)
DateTimeUTC,F1_M11,P_M11,Q1_M11,Q2_M11,T1_M11,T2_M11,T3_M11,T4_M11,T5_M11,U1_M11,ZSPAN_M11,X0_M11,X2_M11,X1_M11
2023-01-01 13:00:00,,0818.4,5.00,0.00,22.2,21.0,00.0,31.1,24.0,15.5,0000.0,0011.23,0003.89,0003.22
2023-01-01 13:01:00,,0818.4,4.99,0.00,22.2,21.0,00.0,31.1,24.0,15.6,0000.0,0012.12,0004.06,0003.35
2023-01-01 13:02:00,,0818.4,4.98,0.00,22.2,21.0,00.0,31.1,24.0,15.7,0000.0,0014.12,0004.38,0003.55
2023-01-01 13:03:00,,0818.4,5.01,0.00,22.2,21.0,00.0,31.1,24.0,15.6,0000.0,0014.91,0004.52,0003.65
2023-01-01 13:04:00,,0818.4,5.04,0.00,22.2,21.0,00.0,31.1,24.0,15.2,0000.0,0014.92,0004.51,0003.65
2023-01-01 13:05:00,,0818.4,4.99,0.00,22.2,21.0,00.0,31.1,24.0,14.9,0000.0,0015.07,0004.55,0003.67
2023-01-01 13:06:00,,0818.4,4.97,0.00,22.2,21.0,00.0,31.1,24.0,15.2,0000.0,0016.00,0004.64,0003.68
2023-01-01 13:07:00,,0818.4,4.99,0.00,22.2,21.0,00.0,31.1,24.0,15.1,0000.0,0016.05,0004.64,0003.64
2023-01-01 13:08:00,,0818.4,5.07,0.00,22.2,21.0,00.0,31.1,24.0,14.9,0000.0,0015.62,0004.61,0003.58
2023-01-01 13:09:00,,0818.4,4.98,0.00,22.2,21.0,00.0,31.1,24.0,14.7,0000.0,0016.24,0004.60,0003.55
2023-01-01 13:10:00,,0818.4,4.97,0.00,22.2,21.0,00.0,31.1,24.0,14.8,0000.0,0016.21,0004.53,0003.51
2023-01-01 13:11:00,,0818.4,5.02,0.00,22.2,21.0,00.0,31.1,24.0,14.8,0000.0,0014.27,0004.40,0003.41
2023-01-01 13:12:00,,0818.4,5.02,0.00,22.2,21.0,00.0,31.1,24.0,14.9,0000.0,0013.37,0004.30,0003.34
2023-01-01 13:13:00,,0818.4,4.98,0.00,22.2,21.0,00.0,31.1,24.0,14.9,0000.0,0011.87,0004.10,0003.19
2023-01-01 13:14:00,,0818.4,4.98,0.00,22.2,21.0,00.0,31.1,24.0,14.9,0000.0,0012.03,0003.99,0003.03
2023-01-01 13:15:00,,0818.5,4.97,0.00,22.2,21.0,00.0,31.1,24.0,15.0,0000.0,0013.13,0004.06,0003.02
2023-01-01 13:16:00,,0818.6,4.99,0.00,22.2,21.0,00.0,31.1,24.0,15.1,0000.0,0014.33,0004.16,0003.08
2023-01-01 13:17:00,,0818.7,5.08,0.00,22.2,21.0,00.0,31.1,24.0,15.2,0000.0,0015.04,0004.19,0003.09
2023-01-01 13:18:00,,0818.7,5.00,0.00,22.2,21.0,00.0,31.1,24.0,15.2,0000.0,0015.83,0004.28,0003.12
2023-01-01 13:19:00,,0818.7,4.97,0.00,22.2,21.0,00.0,31.1,24.0,15.2,0000.0,0016.94,0004.40,0003.23
2023-01-01 13:20:00,,0818.7,5.03,0.00,22.2,21.0,00.0,31.1,24.0,15.2,0000.0,0017.25,0004.53,0003.37
2023-01-01 13:21:00,,0818.7,5.02,0.00,22.2,21.0,00.0,31.1,24.0,15.2,0000.0,0017.49,0004.67,0003.54
2023-01-01 13:22:00,,0818.7,4.99,0.00,22.2,21.0,00.0,31.1,24.1,15.2,0000.0,0017.95,0004.78,0003.69
2023-01-01 13:23:00,,0818.7,4.98,0.00,22.3,21.6,00.0,31.0,24.2,15.1,0000.0,0018.58,0004.90,0003.80
2023-01-01 13:24:00,,0818.7,4.99,0.00,22.4,22.4,00.0,31.0,24.5,14.9,0000.0,0018.54,0004.97,0003.90
2023-01-01 13:25:00,,0818.7,5.01,0.00,22.5,22.6,00.0,31.1,24.6,15.0,0000.0,0017.78,0005.06,0004.02
2023-01-01 13:26:00,,0818.7,5.03,0.00,22.5,22.3,00.0,31.1,24.5,15.1,0000.0,0016.93,0005.13,0004.13
2023-01-01 13:27:00,,0818.8,5.00,0.00,22.5,22.0,00.0,31.2,24.5,15.1,0000.0,0016.11,0005.18,0004.23
2023-01-01 13:28:00,,0818.7,4.97,0.00,22.5,21.8,00.0,31.2,24.4,15.2,0000.0,0014.40,0005.20,0004.33
2023-01-01 13:29:00,,0818.7,5.01,0.00,22.5,21.6,00.0,31.2,24.4,15.2,0000.0,0013.69,0005.19,0004.42
2023-01-01 13:30:00,,0818.7,5.01,0.00,22.5,21.5,00.0,31.2,24.3,15.1,0000.0,0013.96,0005.18,0004.46
2023-01-01 13:31:00,,0818.7,5.00,0.00,22.5,21.4,00.0,31.2,24.3,15.3,0000.0,0013.11,0005.21,0004.52
2023-01-01 13:32:00,,0818.7,4.95,0.00,22.5,21.3,00.0,31.2,24.2,15.3,0000.0,0012.32,0005.21,0004.55
2023-01-01 13:33:00,,0818.6,5.02,0.00,22.4,21.2,00.0,31.2,24.2,15.3,0000.0,0012.01,0005.30,0004.61
2023-01-01 13:34:00,,0818.6,5.06,0.00,22.4,21.2,00.0,31.2,24.2,15.3,0003.1,0011.57,0005.36,0004.67
2023-01-01 13:35:00,,0818.7,4.98,0.00,22.4,21.1,00.0,31.3,24.2,15.3,0003.9,0011.32,0005.41,0004.73
2023-01-01 13:36:00,,0818.7,4.99,0.00,22.4,21.1,00.0,31.3,24.2,15.3,0003.7,0011.77,0005.48,0004.81
2023-01-01 13:37:00,,0818.7,4.98,0.00,22.4,21.1,00.0,31.2,24.2,15.4,0003.2,0011.96,0005.54,0004.89
2023-01-01 13:38:00,,0818.7,4.98,0.00,22.4,21.1,00.0,31.2,24.2,15.4,0003.7,0012.45,0005.66,0004.97
2023-01-01 13:39:00,,0818.7,5.00,0.00,22.4,21.1,00.0,31.2,24.2,15.4,0003.8,0012.75,0005.77,0005.04
2023-01-01 13:40:00,,0818.6,5.02,0.00,22.4,21.1,00.0,31.2,24.2,15.4,0004.0,0012.51,0005.85,0005.11
2023-01-01 13:41:00,,0818.6,4.97,0.00,22.4,21.1,00.0,31.2,24.2,15.4,0003.5,0011.31,0005.91,0005.18
2023-01-01 13:42:00,,0818.7,4.99,0.00,22.4,21.1,00.0,31.2,24.1,15.4,0003.6,0011.37,0005.96,0005.20
2023-01-01 13:43:00,,0818.6,4.96,0.00,22.4,21.1,00.0,31.2,24.2,15.3,0002.7,0011.66,0006.01,0005.22
2023-01-01 13:44:00,,0818.7,5.04,0.00,22.4,21.1,00.0,31.2,24.1,15.3,0002.1,0011.77,0005.99,0005.21
2023-01-01 13:45:00,,0818.7,4.99,0.00,22.3,21.1,00.0,31.2,24.1,15.2,0002.0,0011.57,0005.93,0005.19
2023-01-01 13:46:00,,0818.8,5.05,0.00,22.3,21.1,00.0,31.2,24.1,15.3,0001.4,0011.29,0005.92,0005.19
2023-01-01 13:47:00,,0818.8,4.97,0.00,22.3,21.0,00.0,31.2,24.0,15.4,0001.9,0010.52,0005.90,0005.20
2023-01-01 13:48:00,,0818.8,4.97,0.00,22.3,21.0,00.0,31.2,24.0,15.4,0001.3,0010.33,0005.90,0005.21
2023-01-01 13:49:00,,0818.8,5.07,0.00,22.3,21.0,00.0,31.2,24.0,15.4,0001.6,0010.51,0005.86,0005.21
2023-01-01 13:50:00,,0818.8,5.01,0.00,22.3,21.0,00.0,31.2,24.0,15.4,0001.6,0011.13,0005.83,0005.21
2023-01-01 13:51:00,,0818.8,4.96,0.00,22.2,20.9,00.0,31.2,24.0,15.4,0001.6,0012.04,0005.83,0005.21
2023-01-01 13:52:00,,0818.8,4.96,0.00,22.2,20.9,00.0,31.2,24.0,15.3,0002.0,0011.97,0005.82,0005.22
2023-01-01 13:53:00,,0818.8,5.02,0.00,22.2,21.0,00.0,31.2,24.0,15.3,0001.9,0012.22,0005.75,0005.23
2023-01-01 13:54:00,,0818.8,5.05,0.00,22.2,20.9,00.0,31.2,24.0,15.4,0002.3,0012.45,0005.72,0005.22
2023-01-01 13:55:00,,0818.9,4.99,0.00,22.2,21.0,00.0,31.1,24.0,15.4,0002.2,0012.32,0005.71,0005.24
2023-01-01 13:56:00,,0818.9,4.99,0.00,22.3,21.7,00.0,31.1,24.2,15.4,0002.3,0013.01,0005.76,0005.26
2023-01-01 13:57:00,,0818.8,4.97,0.00,22.4,22.6,00.0,31.1,24.5,15.3,0002.4,0014.03,0005.81,0005.25
2023-01-01 13:58:00,,0818.8,5.03,0.00,22.5,22.9,00.0,31.2,24.6,15.2,0002.6,0014.28,0005.84,0005.24
2023-01-01 13:59:00,,0818.8,5.01,0.00,22.6,22.6,00.0,31.2,24.6,15.3,0003.2,0015.50,0005.88,0005.25
